sat.trackr.live / text

‹ back to catalog

STARLINK-32549

NORAD 62118 · 2024-222E

PAYLOAD ACTIVE UNKNOWN

§ Identity

Operator
Country
US
Launch date
2024-11-27
Launch site
AFETR
Launch vehicle
Mass (kg)
RCS (m²)

Purposes: comms

External: N2YO · Heavens-Above · Gunter

§ Orbital elements

Epoch: 2026-09-21T00:02:40.711776Z

Period
94.27 min
Inclination
42.9966°
Eccentricity
0.0000861
Mean motion
15.27592998 rev/d
Perigee alt
482.4 km
Apogee alt
483.6 km
Semi-major
6,861.1 km
B*
3.4661e-4
RAAN
112.8020°
Arg perigee
276.8056°
Mean anomaly
83.2698°
Rev number
10,268

§ Raw data

STARLINK-325491 62118U 24222E   26264.00186009  .00009292  00000+0  34661-3 0  99982 62118  42.9966 112.8020 0000861 276.8056  83.2698 15.27592998102689

JSON: /api/v1/satellites/62118 · /tle

For live sub-satellite position, see the globe view (requires WebGL).

§ Visibility from observer

Set your observer location to see the next 7 days of passes ≥ 10°. The values pass through the URL so the page stays shareable.

No JS? Fill the form by hand. The geolocation button needs JavaScript.